Погода Чулпаново

Погода Чулпаново : погода сейчас, прогноз погоды и архив. Всё, что Вы хотите узнать о погоде Чулпаново!

Поиск расширенной информации на нашем сайте:

Полезная информация: Читайте болюсы хуато инструкция здесь!

Другие новости

Новости СМИ2

Главная страница сайта

Новости сайта

03.07.2017

Напоминаем, что на нашем специализированном сайте Метеоцентр.Азия вы можете получить высокодетализированные автоматические прогнозы погоды по пунктам России, СНГ и мира в авиационном формате (включающие направление и скорость ветра, видимость, явления погоды, количество и форму облачности, нижнюю и верхнюю границу облачности).

Рекомендуем: новости Бердичева

Погода Чулпаново - сегодня

Время (UTC), дата Ветер
(°,м/с) 
Видим.   Явления Облачность Т
(°С)
Тd
(°С)
f(%) Тe
(°С)
Pmin
(гПа)
dP
(гПа)
Po
(мм)
O2
(г/м3)
Тmin Tmax R s Состояние
почвы
09 19.07.17 350 (С) 20000 м    8/1 1000 м средняя, верхняя 
[Cu hum|Ac trans|Ci fib]
+23.5 +12.2 49 +28  1016.2  -0.3  755  278           
12 19.07.17 340 (С) 20000 м    8/3 600 м средняя, верхняя 
[Cu hum|Ac trans|Ci fib]
+23.9 +12.6 49 +29  1015.4  -0.8  755  277           
15 19.07.17 010 (С) 20000 м    4/0 средняя, верхняя 
[Ac trans|Ci fib]
+23.5 +12.7 51 +28  1014.9  -0.5  755  278    +25       
18 19.07.17 310 (СЗ) 20000 м    ясно 
+16.1 +14.2 88 +24  1015.7  -0.5  755  284           
21 19.07.17 тихо ()   20000 м    ясно 
+11.4 +10.6 95 +13  1016.1  0.2  755  290           
00 20.07.17 320 (СЗ) 1000 м  дымка  ясно 
+10.4 +9.8 96 +13  1015.8  -0.3  755  291           
03 20.07.17 030 (СВ) 20000 м  {туман}  ясно 
+14 +13.4 96 +21  1016.1  0.4  755  287  +9.7        сухая 
06 20.07.17 080 (В) 20000 м  {туман}  3/3 1000 м 
[Cu hum]
+23.5 +14.7 58 +31  1015.5  -0.3  755  277           
09 20.07.17 140 (ЮВ) 20000 м    4/3 1000 м средняя, верхняя 
[Cu hum|Ac trans|Ci sp]
+25.3 +13.1 47 +31  1014.9  -0.6  755  276           
12 20.07.17 140 (ЮВ) 20000 м    5/3 1000 м средняя, верхняя 
[Cu hum|Ac trans|Ci sp]
+26.5 +12.1 41 +30  1013.9  -1  754  275           
15 20.07.17 100 (В) 20000 м    3/1 600 м средняя 
[Cu hum|Ac trans]
+25.5 +13.4 47 +31  1013.1  -0.8  753  275    +27.1       
18 20.07.17 340 (С) 20000 м    6/3 600 м средняя 
[Cu hum|Ac trans]
+18.7 +15.9 84 +30  1013.8  0.6  754  281           
21 20.07.17 тихо ()   20000 м  местами туман поземный  3/0 верхняя 
[Ci fib]
+14.8 +14.1 96 +22  1013.8  0.1  753  285           
00 21.07.17 040 (СВ) 2000 м    8/1 600 м средняя, верхняя 
[Cu hum|Ac trans|Ci fib]
+13.4 +12.9 97 +20  1013.6  -0.3  753  287           
03 21.07.17 020 (С) 10 км    10/0 средняя 
[Ac As]
+16 +15 94 +26  1013.7  0.3  753  284  +12.9        сухая 
06 21.07.17 200 (Ю) 20000 м    10/3 1000 м кучево-дожд., средняя 
[Cb cap|Ac As]
+19.3 +15.6 79 +30  1013.9  0.3  754  280           
09 21.07.17 160 (Ю) 20000 м    8/3 1000 м средняя, верхняя 
[Cu hum|Ac trans|Ci fib]
+21.8 +15.3 67 +31  1013.4  -0.5  753  278           
12 21.07.17 180 (Ю) 20000 м  в посл. час ливневой дождь  10/4 600 м кучево-дожд., средняя, верхняя 
[Cb cap|Ac trans|Ci fib]
+21 +16.3 75 +32  1012.4  -1  753  278           
15 21.07.17 280 (З) 20000 м    8/3 1000 м средняя, верхняя 
[Cu hum|Ac trans|Ci fib]
+21.8 +16.5 72 +33  1011.8  -0.5  752  277    +22.8       
18 21.07.17 100 (В) 20000 м    8/0 средняя, верхняя 
[Ac trans|Ci fib]
+16.8 +15.7 93 +28  1011.9  0.1  752  282           
21 21.07.17 250 (З) 20000 м  в посл. час гроза{ливн. осадки}  10/3 600 м кучево-дожд., средняя, верхняя 
[Cb cap|Ac trans|Ci sp]
+16.8 +15.6 93 +28  1011.3  -0.5  752  282           
00 22.07.17 250 (З) 1000 м  дымка{гроза, ливн. осадки}  10/0 средняя, верхняя 
[Ac trans|Ci fib]
+12.8 +12.2 96 +18  1011.2  -0.3  752  287           
03 22.07.17 170 (Ю) 20000 м    5/0 средняя, верхняя 
[Ac trans|Ci fib]
+15 +14.5 97 +24  1011.4  0.3  752  284  +11.8    0.5    влажная 
06 22.07.17 290 (З) 20000 м    5/3 1000 м средняя, верхняя 
[Cu hum|Ac trans|Ci fib]
+21.6 +14.8 65 +30  1011.8  0.6  752  278           
09 22.07.17 290 (З) 20000 м    4/3 1000 м средняя, верхняя 
[Cu hum|Ac trans|Ci fib]
+24.1 +12.5 48 +29  1012.2  0.4  752  276           
Время (UTC), дата Ветер
(°,м/с) 
Видим.   Явления Облачность Т
(°С)
Тd
(°С)
f(%) Тe
(°С)
Pmin
(гПа)
dP
(гПа)
Po
(мм)
O2
(г/м3)
Тmin Tmax R s Состояние
почвы

Для получения пояснительной информации подведите курсор к названию столбца.

ПОГОДА Чулпаново - архив

Всё, что Вы хотите узнать о погоде Чулпаново - удобно и подробно!

Выберите нужную дату (начиная с 1 января 2015* года) и нажмите кнопку "Найти".
Будут отображены архивные сводки погоды по пункту Чулпаново, начиная с указанной даты.


Отображать данные в формате CSV (для использования в таблицах Excel)


Внимание! Наш архив погоды предназначен исключительно для личного некоммерческого использования в познавательных целях. Если Вам необходимы официальные справки о состоянии погоды (для производственных, юридических, коммерческих и т.п. целей), обращайтесь в органы Росгидромета.

*Примечание: данная дата относится к архиву по метеостанциям СССР (Россия, СНГ, Балтия).
Архив по метеостанциям Зарубежной Европы и Азии (кроме Китая) хранится 10 дней, по другим регионам земного шара (Китай, Африка, Америка, Австралия, Океания) - 1 день.

Чулпаново - район местоположения метеостанции


Название, широта, долгота, высота метеостанции:
Чулпаново 54.5°ш. 50.4°д. 78 м над ур. моря [Российская Федерация]

Дополнительная информация

В oтличие oт бoльшинства пoгoдных сайтoв мы публикуем пoдрoбную метеoинфoрмацию в детальнoм прoфессиoнальнoм фoрмате.

Характеристики температуры и влажнoсти вoздуха измеряются на высoте 2 м в тени вдали oт зданий и деревьев.
Скoрoсть ветра измеряется на высoте 10 м (на урoвне рoста челoвека скoрoсть ветра ниже в 1.5-2 раза). Если метеoстанция нахoдится в гoрoде или в лесу, тo скoрoсть ветра занижена на 2-4 м/с пo сравнению с oткрытым местoм. Скoрoсть ветра над акватoриями крупных рек и oзёр, а также на вершинах хoлмoв на 2-5 м/с выше, чем в oбычных услoвиях.
Атмoсфернoе давление в разных тoчках местнoсти мoжет значительнo oтличаться oт давления на метеoстанции, в зависимoсти oт услoвий рельефа (при пoдъёме на 10 м давление пoнижается примернo на 1 мм рт.ст.).